This is the latest recevied weather packets stored in our database for station/object KD0RII. If no packets are shown the sender has not sent any weather packets the latest 10 day(s).
| Time | Temp. | Humidity | Pressure | Rain* | Wind** | Luminosity | Snow |
|---|---|---|---|---|---|---|---|
| 1777672535 | 18.89° C | 38% | 1017.9 hPa | 0 mm | - | 70 W/m² | - |
| 1777672230 | 19.44° C | 35% | 1018.2 hPa | 0 mm | - | 101 W/m² | - |
| 1777671925 | 20° C | 34% | 1018 hPa | 0 mm | - | 179 W/m² | - |
| 1777671622 | 20.56° C | 32% | 1018 hPa | 0 mm | - | 378 W/m² | - |
| 1777671319 | 20° C | 33% | 1018.1 hPa | 0 mm | - | 602 W/m² | - |
| 1777671015 | 19.44° C | 36% | 1018.1 hPa | 0 mm | - | 585 W/m² | - |
| 1777670711 | 18.33° C | 35% | 1018.2 hPa | 0 mm | - | 637 W/m² | - |
| 1777670409 | 19.44° C | 34% | 1018.1 hPa | 0 mm | - | 186 W/m² | - |
| 1777670105 | 20.56° C | 34% | 1018.4 hPa | 0 mm | - | 280 W/m² | - |
| 1777669803 | 21.11° C | 32% | 1018.3 hPa | 0 mm | - | 206 W/m² | - |
| 1777669499 | 22.22° C | 32% | 1018.4 hPa | 0 mm | - | 248 W/m² | - |
| 1777669196 | 21.67° C | 30% | 1018.5 hPa | 0 mm | - | 799 W/m² | - |
| 1777668892 | 22.22° C | 32% | 1018.6 hPa | 0 mm | - | 776 W/m² | - |
| 1777668590 | 21.67° C | 30% | 1018.9 hPa | 0 mm | - | 749 W/m² | - |
| 1777668285 | 20.56° C | 32% | 1019.1 hPa | 0 mm | - | 719 W/m² | - |
| 1777667982 | 20.56° C | 30% | 1019.1 hPa | 0 mm | - | 779 W/m² | - |
| 1777667678 | 19.44° C | 33% | 1019.2 hPa | 0 mm | - | 767 W/m² | - |
| 1777667376 | 18.89° C | 34% | 1019.4 hPa | 0 mm | - | 800 W/m² | - |
| 1777667072 | 18.89° C | 32% | 1019.3 hPa | 0 mm | - | 296 W/m² | - |
| 1777666769 | 19.44° C | 33% | 1019.3 hPa | 0 mm | - | 802 W/m² | - |
| 1777666466 | 20° C | 34% | 1019.5 hPa | 0 mm | - | 306 W/m² | - |
| 1777666163 | 20° C | 32% | 1019.6 hPa | 0 mm | - | 318 W/m² | - |
| 1777665860 | 20.56° C | 33% | 1019.5 hPa | 0 mm | - | 246 W/m² | - |
| 1777665558 | 20.56° C | 34% | 1019.6 hPa | 0 mm | - | 266 W/m² | - |
| 1777665254 | 20.56° C | 33% | 1019.6 hPa | 0 mm | - | 467 W/m² | - |
* Rain latest hour (hover to see other rain measurements)
** Current wind speed in m/s (hover to see current wind gust speed)